Weather History for Faribault, MN

Change the Weather History Date:

Friday, November 9, 2012

  Actual Average Record
Temperature  
Mean Temperature 40 °F -  
Max Temperature 51 °F 44 °F 73 °F (1999)
Min Temperature 28 °F 26 °F 5 °F (1991)
Degree Days  
Heating Degree Days 26    
Moisture  
Dew Point 37 °F    
Average Humidity 86    
Maximum Humidity 100    
Minimum Humidity 67    
Precipitation  
Precipitation 0.00 in - - ()
Sea Level Pressure  
Sea Level Pressure 29.96 in    
Wind  
Wind Speed 6 mph (ENE)    
Max Wind Speed 17 mph    
Max Gust Speed 22 mph    
Visibility 6 miles    
Events      
Averages and records for this station are not official NWS values.
T = Trace of Precipitation, MM = Missing Value Source: NWS Daily Summary

Daily Weather History Graph

Daily Weather History Graph

Search for Another Location

Airport:

Trip Planner

Search our weather history database for the weather conditions in past years. The results will help you decide how hot, cold, wet, or windy it might be!

Date:

Astronomy

Nov. 09, 2012 Rise Set
Actual Time 7:01 AM CST 4:51 PM CST
Civil Twilight 6:30 AM CST 5:22 PM CST
Nautical Twilight 5:56 AM CST 5:57 PM CST
Astronomical Twilight 5:22 AM CST 6:31 PM CST
Moon 1:50 AM CST (11/9) 2:14 PM CST (11/9)
Length of Visible Light 10h 51m
Length of Day
9h 50m
Waning Crescent, 23% of the Moon is Illuminated
Nov 9
Waning Crescent
Nov 13
New
Nov 20
First Quarter
Nov 28
Full
Dec 6
Last Quarter

Hourly Weather History & Observations

Time (CST) Temp. Windchill Dew Point Humidity Pressure Visibility Wind Dir Wind Speed Gust Speed Precip Events Conditions
12:14 AM 30.2 °F - 30.2 °F 100% 29.99 in 2.5 mi Calm Calm - N/A   Clear
12:34 AM 30.2 °F - 30.2 °F 100% 29.99 in 0.8 mi Calm Calm - N/A   Mist
12:54 AM 32.0 °F - 32.0 °F 100% 29.98 in 3.0 mi Calm Calm - N/A   Clear
1:14 AM 28.4 °F - 28.4 °F 100% 29.98 in 2.0 mi Calm Calm - N/A   Clear
1:34 AM 28.4 °F - 28.4 °F 100% 29.97 in 2.0 mi Calm Calm - N/A   Clear
1:54 AM 28.4 °F - 28.4 °F 100% 29.97 in 3.0 mi Calm Calm - N/A   Clear
2:14 AM 30.2 °F - 30.2 °F 100% 29.97 in 2.5 mi Calm Calm - N/A   Clear
2:34 AM 33.8 °F 30.8 °F 33.8 °F 100% 29.97 in 3.0 mi NNE 3.5 mph - N/A   Clear
2:54 AM 33.8 °F 29.6 °F 33.8 °F 100% 29.98 in 4.0 mi NNE 4.6 mph - N/A   Clear
3:14 AM 33.8 °F 30.8 °F 33.8 °F 100% 29.98 in 3.0 mi NE 3.5 mph - N/A   Clear
3:34 AM 33.8 °F 29.6 °F 33.8 °F 100% 29.97 in 2.0 mi NE 4.6 mph - N/A   Clear
3:54 AM 33.8 °F 29.6 °F 33.8 °F 100% 29.96 in 2.5 mi NE 4.6 mph - N/A   Clear
4:14 AM 33.8 °F 29.6 °F 33.8 °F 100% 29.97 in 4.0 mi NNE 4.6 mph - N/A   Clear
4:33 AM 33.8 °F 30.8 °F 33.8 °F 100% 29.99 in 5.0 mi NNE 3.5 mph - N/A   Clear
4:54 AM 33.8 °F 29.6 °F 33.8 °F 100% 29.99 in 4.0 mi North 4.6 mph - N/A   Clear
5:14 AM 33.8 °F 29.6 °F 33.8 °F 100% 30.00 in 4.0 mi NNE 4.6 mph - N/A   Clear
5:34 AM 33.8 °F 30.8 °F 33.8 °F 100% 29.99 in 4.0 mi NE 3.5 mph - N/A   Clear
5:54 AM 32.0 °F 28.7 °F 32.0 °F 100% 29.99 in 3.0 mi NNE 3.5 mph - N/A   Clear
6:14 AM 32.0 °F 27.5 °F 32.0 °F 100% 29.99 in 4.0 mi NE 4.6 mph - N/A   Clear
6:34 AM 30.2 °F 26.7 °F 30.2 °F 100% 30.00 in 3.0 mi NNE 3.5 mph - N/A   Clear
6:54 AM 30.2 °F 25.4 °F 30.2 °F 100% 29.99 in 3.0 mi NNE 4.6 mph - N/A   Clear
7:14 AM 30.2 °F 25.4 °F 30.2 °F 100% 30.00 in 2.0 mi North 4.6 mph - N/A   Clear
7:34 AM 32.0 °F 27.5 °F 32.0 °F 100% 30.01 in 2.5 mi NE 4.6 mph - N/A   Clear
7:54 AM 33.8 °F 29.6 °F 33.8 °F 100% 30.01 in 2.5 mi NE 4.6 mph - N/A   Clear
8:14 AM 33.8 °F 30.8 °F 33.8 °F 100% 30.02 in 3.0 mi NNE 3.5 mph - N/A   Clear
8:54 AM 35.6 °F 30.7 °F 35.6 °F 100% 30.01 in 4.0 mi NE 5.8 mph - N/A   Clear
9:14 AM 37.4 °F 32.8 °F 37.4 °F 100% 30.01 in 4.0 mi NE 5.8 mph - N/A   Clear
9:33 AM 39.2 °F 35.9 °F 39.2 °F 100% 30.00 in 5.0 mi ENE 4.6 mph - N/A   Clear
9:54 AM 42.8 °F 39.3 °F 41.0 °F 93% 30.00 in 5.0 mi ENE 5.8 mph - N/A   Clear
10:13 AM 44.6 °F 40.7 °F 41.0 °F 87% 30.00 in 7.0 mi ENE 6.9 mph - N/A   Clear
10:34 AM 46.4 °F 41.1 °F 41.0 °F 81% 30.00 in 7.0 mi East 11.5 mph 17.3 mph N/A   Clear
10:53 AM 46.4 °F 41.5 °F 41.0 °F 81% 29.99 in 7.0 mi East 10.4 mph 20.7 mph N/A   Clear
11:14 AM 48.2 °F - 41.0 °F 76% 29.99 in 7.0 mi East 13.8 mph 18.4 mph N/A   Clear
11:34 AM 48.2 °F - 41.0 °F 76% 29.98 in 10.0 mi ENE 11.5 mph 19.6 mph N/A   Clear
11:54 AM 50.0 °F - 41.0 °F 71% 29.97 in 10.0 mi East 11.5 mph 19.6 mph N/A   Clear
12:14 PM 50.0 °F - 41.0 °F 71% 29.96 in 10.0 mi East 11.5 mph 19.6 mph N/A   Clear
12:34 PM 51.8 °F - 41.0 °F 67% 29.95 in 10.0 mi East 17.3 mph - N/A   Clear
12:54 PM 50.0 °F - 41.0 °F 71% 29.95 in 10.0 mi East 12.7 mph 18.4 mph N/A   Clear
1:14 PM 50.0 °F - 41.0 °F 71% 29.94 in 10.0 mi East 12.7 mph 17.3 mph N/A   Clear
1:34 PM 50.0 °F - 42.8 °F 76% 29.93 in 10.0 mi ENE 12.7 mph - N/A   Clear
1:54 PM 51.8 °F - 41.0 °F 67% 29.92 in 10.0 mi ENE 15.0 mph - N/A   Clear
2:14 PM 51.8 °F - 42.8 °F 71% 29.92 in 10.0 mi ENE 12.7 mph 17.3 mph N/A   Clear
2:33 PM 51.8 °F - 42.8 °F 71% 29.92 in 10.0 mi ENE 12.7 mph - N/A   Clear
2:54 PM 51.8 °F - 41.0 °F 67% 29.92 in 10.0 mi ENE 11.5 mph - N/A   Clear
3:14 PM 51.8 °F - 41.0 °F 67% 29.92 in 10.0 mi ENE 12.7 mph 18.4 mph N/A   Clear
3:34 PM 50.0 °F - 41.0 °F 71% 29.92 in 10.0 mi ENE 13.8 mph - N/A   Clear
3:54 PM 50.0 °F - 41.0 °F 71% 29.91 in 10.0 mi ENE 11.5 mph 19.6 mph N/A   Clear
4:14 PM 48.2 °F - 41.0 °F 76% 29.91 in 10.0 mi ENE 8.1 mph - N/A   Clear
4:34 PM 48.2 °F - 41.0 °F 76% 29.91 in 7.0 mi ENE 10.4 mph 19.6 mph N/A   Clear
4:54 PM 48.2 °F - 41.0 °F 76% 29.91 in 10.0 mi ENE 10.4 mph - N/A   Clear
5:14 PM 46.4 °F 41.5 °F 39.2 °F 76% 29.92 in 10.0 mi ENE 10.4 mph - N/A   Clear
5:34 PM 46.4 °F 41.9 °F 39.2 °F 76% 29.93 in 10.0 mi ENE 9.2 mph - N/A   Mostly Cloudy
5:54 PM 46.4 °F 40.7 °F 39.2 °F 76% 29.93 in 10.0 mi ENE 12.7 mph 17.3 mph N/A   Overcast
6:14 PM 46.4 °F 41.5 °F 39.2 °F 76% 29.93 in 10.0 mi ENE 10.4 mph 18.4 mph N/A   Overcast
6:34 PM 46.4 °F 40.4 °F 39.2 °F 76% 29.92 in 10.0 mi ENE 13.8 mph 18.4 mph N/A   Overcast
6:53 PM 46.4 °F 41.5 °F 39.2 °F 76% 29.92 in 10.0 mi ENE 10.4 mph 18.4 mph N/A   Overcast
7:14 PM 46.4 °F 41.1 °F 39.2 °F 76% 29.92 in 10.0 mi East 11.5 mph 18.4 mph N/A   Overcast
7:34 PM 46.4 °F 40.7 °F 39.2 °F 76% 29.93 in 10.0 mi ENE 12.7 mph 18.4 mph N/A   Overcast
7:54 PM 46.4 °F 41.1 °F 39.2 °F 76% 29.93 in 7.0 mi ENE 11.5 mph - N/A   Overcast
8:14 PM 46.4 °F 41.5 °F 39.2 °F 76% 29.93 in 7.0 mi East 10.4 mph 17.3 mph N/A   Overcast
8:34 PM 46.4 °F 41.5 °F 39.2 °F 76% 29.94 in 7.0 mi East 10.4 mph - N/A   Overcast
8:54 PM 46.4 °F 41.9 °F 39.2 °F 76% 29.94 in 7.0 mi ENE 9.2 mph 17.3 mph N/A   Overcast
9:14 PM 46.4 °F 41.5 °F 39.2 °F 76% 29.95 in 7.0 mi ENE 10.4 mph - N/A   Overcast
9:34 PM 46.4 °F 41.1 °F 39.2 °F 76% 29.95 in 7.0 mi ENE 11.5 mph 16.1 mph N/A   Overcast
9:54 PM 44.6 °F 38.8 °F 39.2 °F 81% 29.94 in 7.0 mi ENE 11.5 mph 17.3 mph N/A   Overcast
10:14 PM 44.6 °F 38.4 °F 39.2 °F 81% 29.94 in 7.0 mi ENE 12.7 mph 19.6 mph N/A   Overcast
10:34 PM 44.6 °F 39.2 °F 39.2 °F 81% 29.93 in 5.0 mi ENE 10.4 mph 18.4 mph N/A   Haze
10:54 PM 44.6 °F 38.1 °F 41.0 °F 87% 29.92 in 5.0 mi ENE 13.8 mph 21.9 mph N/A   Overcast
11:14 PM 44.6 °F 38.4 °F 41.0 °F 87% 29.91 in 5.0 mi ENE 12.7 mph - N/A   Overcast
11:34 PM 44.6 °F 38.8 °F 41.0 °F 87% 29.90 in 5.0 mi East 11.5 mph 17.3 mph N/A   Mostly Cloudy
11:54 PM 42.8 °F 36.6 °F 41.0 °F 93% 29.89 in 5.0 mi ENE 11.5 mph 17.3 mph N/A   Scattered Clouds